Time,TemperatureF,DewpointF,PressureIn,WindDirection,WindDirectionDegrees,WindSpeedMPH,WindSpeedGustMPH,Humidity,HourlyPrecipIn,Conditions,Clouds,dailyrainin,SolarRadiationWatts/m^2,SoftwareType,DateUTC
2013-06-29 00:31:00,67.0,63.0,29.57,WNW,288,2.0,6.0,87,0.00,,,0.00,0.000000,,2013-06-29 05:31:00,
2013-06-29 00:41:00,66.0,63.0,29.57,WNW,297,1.0,3.0,89,0.00,,,0.00,0.000000,,2013-06-29 05:41:00,
2013-06-29 00:52:00,66.0,63.0,29.57,WNW,297,0.0,1.0,90,0.00,,,0.00,0.000000,,2013-06-29 05:52:00,
2013-06-29 01:01:00,66.0,63.0,29.57,NW,315,1.0,3.0,90,0.00,,,0.00,0.000000,,2013-06-29 06:01:00,
2013-06-29 01:12:00,66.0,63.0,29.57,NW,304,0.0,3.0,91,0.00,,,0.00,0.000000,,2013-06-29 06:12:00,
2013-06-29 01:22:00,65.0,62.0,29.56,NW,304,0.0,1.0,91,0.00,,,0.00,0.000000,,2013-06-29 06:22:00,
2013-06-29 01:33:00,65.0,63.0,29.56,NW,309,0.0,3.0,92,0.00,,,0.00,0.000000,,2013-06-29 06:33:00,
2013-06-29 01:43:00,65.0,63.0,29.56,NW,321,0.0,3.0,92,0.00,,,0.00,0.000000,,2013-06-29 06:43:00,
2013-06-29 01:53:00,65.0,63.0,29.56,WNW,286,1.0,3.0,93,0.00,,,0.00,0.000000,,2013-06-29 06:53:00,
2013-06-29 02:02:00,66.0,64.0,29.56,WNW,286,0.0,3.0,92,0.00,,,0.00,0.000000,,2013-06-29 07:02:00,
2013-06-29 02:12:00,66.0,64.0,29.56,WNW,290,1.0,3.0,92,0.00,,,0.00,0.000000,,2013-06-29 07:12:00,
2013-06-29 02:22:00,66.0,64.0,29.56,WNW,293,1.0,2.0,92,0.00,,,0.00,0.000000,,2013-06-29 07:22:00,
2013-06-29 02:33:00,66.0,64.0,29.56,WNW,294,0.0,2.0,92,0.00,,,0.00,0.000000,,2013-06-29 07:33:00,
2013-06-29 02:43:00,65.0,63.0,29.56,WNW,294,0.0,2.0,92,0.00,,,0.00,0.000000,,2013-06-29 07:43:00,
2013-06-29 02:53:00,65.0,63.0,29.56,WNW,297,0.0,3.0,92,0.00,,,0.00,0.000000,,2013-06-29 07:53:00,
2013-06-29 03:01:00,65.0,63.0,29.56,WNW,290,0.0,3.0,92,0.00,,,0.00,0.000000,,2013-06-29 08:01:00,
2013-06-29 03:12:00,65.0,63.0,29.56,WNW,290,0.0,2.0,93,0.00,,,0.00,0.000000,,2013-06-29 08:12:00,
2013-06-29 03:22:00,65.0,63.0,29.56,WNW,290,1.0,2.0,92,0.00,,,0.00,0.000000,,2013-06-29 08:22:00,
2013-06-29 03:33:00,65.0,63.0,29.55,WNW,290,0.0,1.0,92,0.00,,,0.00,0.000000,,2013-06-29 08:33:00,
2013-06-29 03:43:00,65.0,63.0,29.56,WNW,290,0.0,2.0,92,0.00,,,0.00,0.000000,,2013-06-29 08:43:00,
2013-06-29 03:52:00,65.0,63.0,29.56,WNW,290,0.0,1.0,92,0.00,,,0.00,0.000000,,2013-06-29 08:52:00,
2013-06-29 04:02:00,64.0,62.0,29.56,WNW,290,0.0,1.0,92,0.00,,,0.00,0.000000,,2013-06-29 09:02:00,
2013-06-29 04:12:00,64.0,62.0,29.56,WNW,290,0.0,2.0,92,0.00,,,0.00,0.000000,,2013-06-29 09:12:00,
2013-06-29 04:22:00,65.0,62.0,29.57,WNW,290,1.0,2.0,91,0.00,,,0.00,0.000000,,2013-06-29 09:22:00,
2013-06-29 04:33:00,65.0,62.0,29.57,West,280,1.0,3.0,91,0.00,,,0.00,0.000000,,2013-06-29 09:33:00,
2013-06-29 04:42:00,65.0,62.0,29.56,NW,312,0.0,3.0,91,0.00,,,0.00,0.000000,,2013-06-29 09:42:00,
2013-06-29 04:53:00,65.0,62.0,29.57,NW,312,0.0,2.0,90,0.00,,,0.00,0.000000,,2013-06-29 09:53:00,
2013-06-29 05:01:00,65.0,62.0,29.57,NW,312,0.0,3.0,90,0.00,,,0.00,0.000000,,2013-06-29 10:01:00,
2013-06-29 05:11:00,65.0,62.0,29.57,NW,312,0.0,2.0,90,0.00,,,0.00,0.000000,,2013-06-29 10:11:00,
2013-06-29 05:22:00,65.0,62.0,29.58,NW,312,0.0,1.0,90,0.00,,,0.00,0.000000,,2013-06-29 10:22:00,
2013-06-29 05:33:00,65.0,62.0,29.58,NW,312,0.0,1.0,90,0.00,,,0.00,0.000000,,2013-06-29 10:33:00,
2013-06-29 05:43:00,65.0,62.0,29.58,NW,312,0.0,2.0,90,0.00,,,0.00,0.000000,,2013-06-29 10:43:00,
2013-06-29 05:52:00,65.0,62.0,29.58,NW,312,0.0,1.0,90,0.00,,,0.00,0.000000,,2013-06-29 10:52:00,
2013-06-29 06:02:00,65.0,62.0,29.58,NW,312,0.0,1.0,90,0.00,,,0.00,5.000000,,2013-06-29 11:02:00,
2013-06-29 06:11:00,65.0,62.0,29.58,NW,312,1.0,2.0,90,0.00,,,0.00,5.000000,,2013-06-29 11:11:00,
2013-06-29 06:23:00,65.0,62.0,29.58,NW,312,0.0,3.0,90,0.00,,,0.00,14.000000,,2013-06-29 11:23:00,
2013-06-29 06:33:00,65.0,62.0,29.58,NW,312,0.0,1.0,90,0.00,,,0.00,12.000000,,2013-06-29 11:33:00,
2013-06-29 06:43:00,65.0,62.0,29.58,NW,312,0.0,2.0,89,0.00,,,0.00,25.000000,,2013-06-29 11:43:00,
2013-06-29 06:53:00,65.0,62.0,29.58,NW,312,0.0,2.0,89,0.00,,,0.00,35.000000,,2013-06-29 11:53:00,
2013-06-29 07:02:00,65.0,62.0,29.58,NW,312,0.0,1.0,89,0.00,,,0.00,49.000000,,2013-06-29 12:02:00,
2013-06-29 07:12:00,65.0,62.0,29.58,NW,312,0.0,1.0,89,0.00,,,0.00,35.000000,,2013-06-29 12:12:00,
2013-06-29 07:22:00,65.0,62.0,29.58,NW,312,0.0,2.0,89,0.00,,,0.00,26.000000,,2013-06-29 12:22:00,
2013-06-29 07:34:00,65.0,62.0,29.58,WNW,288,0.0,3.0,89,0.00,,,0.00,21.000000,,2013-06-29 12:34:00,
2013-06-29 07:43:00,65.0,62.0,29.58,WNW,288,1.0,3.0,89,0.00,,,0.00,21.000000,,2013-06-29 12:43:00,
2013-06-29 07:53:00,65.0,62.0,29.59,NNE,32,2.0,3.0,89,0.00,,,0.00,32.000000,,2013-06-29 12:53:00,
2013-06-29 08:02:00,65.0,62.0,29.58,NW,323,1.0,3.0,89,0.00,,,0.00,33.000000,,2013-06-29 13:02:00,
2013-06-29 08:11:00,65.0,62.0,29.58,NW,320,2.0,3.0,89,0.00,,,0.00,54.000000,,2013-06-29 13:11:00,
2013-06-29 08:23:00,65.0,62.0,29.59,NNW,334,1.0,6.0,90,0.00,,,0.00,60.000000,,2013-06-29 13:23:00,
2013-06-29 08:34:00,65.0,62.0,29.59,NNE,16,2.0,3.0,89,0.00,,,0.00,86.000000,,2013-06-29 13:34:00,
2013-06-29 08:43:00,65.0,62.0,29.59,North,357,1.0,3.0,90,0.00,,,0.00,95.000000,,2013-06-29 13:43:00,
2013-06-29 08:53:00,65.0,62.0,29.59,North,5,1.0,3.0,90,0.00,,,0.00,88.000000,,2013-06-29 13:53:00,
2013-06-29 09:02:00,66.0,63.0,29.59,NNE,22,2.0,3.0,90,0.00,,,0.00,109.000000,,2013-06-29 14:02:00,
2013-06-29 09:12:00,66.0,63.0,29.59,NNE,22,2.0,3.0,90,0.00,,,0.00,109.000000,,2013-06-29 14:12:00,
2013-06-29 09:23:00,66.0,63.0,29.59,NNE,31,1.0,3.0,89,0.00,,,0.00,105.000000,,2013-06-29 14:23:00,
2013-06-29 09:34:00,66.0,63.0,29.59,NNE,32,0.0,3.0,89,0.00,,,0.00,125.000000,,2013-06-29 14:34:00,
2013-06-29 09:44:00,67.0,63.0,29.59,NW,326,1.0,3.0,88,0.00,,,0.00,109.000000,,2013-06-29 14:44:00,
2013-06-29 09:53:00,67.0,63.0,29.59,North,0,2.0,5.0,87,0.00,,,0.00,128.000000,,2013-06-29 14:53:00,
2013-06-29 10:01:00,67.0,63.0,29.59,NW,324,1.0,3.0,88,0.00,,,0.00,102.000000,,2013-06-29 15:01:00,
2013-06-29 10:11:00,67.0,63.0,29.59,WNW,283,2.0,3.0,87,0.00,,,0.00,90.000000,,2013-06-29 15:11:00,
2013-06-29 10:22:00,67.0,63.0,29.59,NW,309,0.0,3.0,87,0.00,,,0.00,114.000000,,2013-06-29 15:22:00,
2013-06-29 10:33:00,67.0,63.0,29.59,NNE,28,1.0,3.0,87,0.00,,,0.00,155.000000,,2013-06-29 15:33:00,
2013-06-29 10:42:00,67.0,63.0,29.59,NNW,332,1.0,3.0,87,0.00,,,0.00,214.000000,,2013-06-29 15:42:00,
2013-06-29 10:53:00,68.0,63.0,29.59,NNE,17,3.0,3.0,85,0.00,,,0.00,160.000000,,2013-06-29 15:53:00,
2013-06-29 11:02:00,68.0,64.0,29.59,NNE,17,1.0,3.0,86,0.00,,,0.00,246.000000,,2013-06-29 16:02:00,
2013-06-29 11:12:00,68.0,63.0,29.59,ENE,58,1.0,3.0,85,0.00,,,0.00,199.000000,,2013-06-29 16:12:00,
2013-06-29 11:22:00,68.0,63.0,29.59,NNE,32,2.0,3.0,85,0.00,,,0.00,190.000000,,2013-06-29 16:22:00,
2013-06-29 11:33:00,68.0,63.0,29.59,NE,35,3.0,5.0,85,0.00,,,0.00,360.000000,,2013-06-29 16:33:00,
2013-06-29 11:43:00,69.0,64.0,29.59,NE,54,1.0,6.0,84,0.00,,,0.00,557.000000,,2013-06-29 16:43:00,
2013-06-29 11:53:00,69.0,63.0,29.59,North,7,2.0,6.0,82,0.00,,,0.00,376.000000,,2013-06-29 16:53:00,
2013-06-29 12:01:00,69.0,63.0,29.59,NE,37,3.0,5.0,82,0.00,,,0.00,244.000000,,2013-06-29 17:01:00,
2013-06-29 12:12:00,69.0,64.0,29.59,NE,34,3.0,6.0,83,0.00,,,0.00,156.000000,,2013-06-29 17:12:00,
2013-06-29 12:23:00,68.0,63.0,29.60,NNE,23,3.0,5.0,84,0.00,,,0.00,156.000000,,2013-06-29 17:23:00,
2013-06-29 12:34:00,68.0,63.0,29.60,NNE,27,3.0,6.0,84,0.00,,,0.00,190.000000,,2013-06-29 17:34:00,
2013-06-29 12:42:00,68.0,63.0,29.60,North,8,3.0,6.0,85,0.00,,,0.00,239.000000,,2013-06-29 17:42:00,
2013-06-29 12:52:00,69.0,64.0,29.60,NE,38,3.0,6.0,84,0.00,,,0.00,294.000000,,2013-06-29 17:52:00,
2013-06-29 13:01:00,69.0,64.0,29.60,NE,36,2.0,5.0,83,0.00,,,0.00,227.000000,,2013-06-29 18:01:00,
2013-06-29 13:12:00,69.0,64.0,29.60,NNE,31,3.0,7.0,83,0.00,,,0.00,417.000000,,2013-06-29 18:12:00,
2013-06-29 13:22:00,69.0,64.0,29.61,North,8,2.0,7.0,83,0.00,,,0.00,299.000000,,2013-06-29 18:22:00,
2013-06-29 13:34:00,69.0,63.0,29.61,NNE,14,2.0,5.0,82,0.00,,,0.00,225.000000,,2013-06-29 18:34:00,
2013-06-29 13:43:00,68.0,63.0,29.62,NNE,20,3.0,7.0,83,0.00,,,0.00,105.000000,,2013-06-29 18:43:00,
2013-06-29 13:52:00,68.0,63.0,29.62,North,8,2.0,7.0,84,0.00,,,0.00,134.000000,,2013-06-29 18:52:00,
2013-06-29 14:01:00,67.0,62.0,29.62,North,11,3.0,5.0,85,0.00,,,0.00,49.000000,,2013-06-29 19:01:00,
2013-06-29 14:12:00,66.0,62.0,29.63,NNE,17,2.0,6.0,88,0.01,,,0.01,39.000000,,2013-06-29 19:12:00,
2013-06-29 14:22:00,65.0,62.0,29.63,NNE,27,4.0,7.0,89,0.01,,,0.01,58.000000,,2013-06-29 19:22:00,
2013-06-29 14:34:00,65.0,62.0,29.63,NNE,21,3.0,7.0,90,0.01,,,0.01,109.000000,,2013-06-29 19:34:00,
2013-06-29 14:43:00,65.0,62.0,29.63,NE,39,3.0,6.0,89,0.01,,,0.01,193.000000,,2013-06-29 19:43:00,
2013-06-29 14:54:00,66.0,63.0,29.64,NNE,19,3.0,3.0,89,0.01,,,0.01,113.000000,,2013-06-29 19:54:00,
2013-06-29 15:02:00,66.0,62.0,29.64,NNE,12,2.0,3.0,88,0.01,,,0.01,179.000000,,2013-06-29 20:02:00,
2013-06-29 15:11:00,66.0,62.0,29.64,NNE,22,2.0,6.0,87,0.00,,,0.01,253.000000,,2013-06-29 20:11:00,
2013-06-29 15:23:00,67.0,63.0,29.64,ENE,66,1.0,6.0,86,0.00,,,0.01,257.000000,,2013-06-29 20:23:00,
2013-06-29 15:33:00,67.0,62.0,29.64,NNE,18,5.0,7.0,83,0.00,,,0.01,258.000000,,2013-06-29 20:33:00,
2013-06-29 15:43:00,67.0,62.0,29.65,NE,42,2.0,6.0,83,0.00,,,0.01,260.000000,,2013-06-29 20:43:00,
2013-06-29 15:52:00,68.0,62.0,29.65,NE,43,2.0,5.0,82,0.00,,,0.01,353.000000,,2013-06-29 20:52:00,
2013-06-29 16:02:00,69.0,62.0,29.65,North,7,5.0,7.0,79,0.00,,,0.01,244.000000,,2013-06-29 21:02:00,
2013-06-29 16:11:00,69.0,62.0,29.65,NNE,29,2.0,6.0,79,0.00,,,0.01,213.000000,,2013-06-29 21:11:00,
2013-06-29 16:22:00,69.0,62.0,29.65,NNE,13,3.0,5.0,78,0.00,,,0.01,287.000000,,2013-06-29 21:22:00,
2013-06-29 16:32:00,69.0,61.0,29.65,NNW,347,3.0,6.0,76,0.00,,,0.01,209.000000,,2013-06-29 21:32:00,
2013-06-29 16:42:00,69.0,61.0,29.65,NW,326,2.0,6.0,75,0.00,,,0.01,664.000000,,2013-06-29 21:42:00,
2013-06-29 16:52:00,71.0,61.0,29.65,NE,36,4.0,8.0,70,0.00,,,0.01,571.000000,,2013-06-29 21:52:00,
2013-06-29 17:01:00,71.0,60.0,29.65,NNE,27,3.0,8.0,69,0.00,,,0.01,475.000000,,2013-06-29 22:01:00,
2013-06-29 17:11:00,71.0,60.0,29.65,NE,39,3.0,8.0,69,0.00,,,0.01,438.000000,,2013-06-29 22:11:00,
2013-06-29 17:21:00,70.0,59.0,29.65,NE,41,4.0,8.0,67,0.00,,,0.01,338.000000,,2013-06-29 22:21:00,
2013-06-29 17:33:00,70.0,59.0,29.65,NNE,28,4.0,7.0,67,0.00,,,0.01,316.000000,,2013-06-29 22:33:00,
2013-06-29 17:43:00,70.0,59.0,29.65,NNE,20,3.0,6.0,68,0.00,,,0.01,264.000000,,2013-06-29 22:43:00,
2013-06-29 17:53:00,70.0,59.0,29.66,NNW,335,2.0,5.0,69,0.00,,,0.01,230.000000,,2013-06-29 22:53:00,
2013-06-29 18:02:00,70.0,59.0,29.66,NNE,26,4.0,6.0,69,0.00,,,0.01,236.000000,,2013-06-29 23:02:00,
2013-06-29 18:12:00,69.0,58.0,29.66,North,11,3.0,7.0,69,0.00,,,0.01,202.000000,,2013-06-29 23:12:00,
2013-06-29 18:23:00,69.0,59.0,29.66,NNE,31,3.0,6.0,70,0.00,,,0.01,178.000000,,2013-06-29 23:23:00,
2013-06-29 18:34:00,69.0,59.0,29.66,NNE,24,2.0,8.0,71,0.00,,,0.01,148.000000,,2013-06-29 23:34:00,
2013-06-29 18:43:00,68.0,58.0,29.67,NE,37,4.0,7.0,71,0.00,,,0.01,120.000000,,2013-06-29 23:43:00,
2013-06-29 18:52:00,68.0,59.0,29.67,NNE,18,3.0,6.0,73,0.00,,,0.01,113.000000,,2013-06-29 23:52:00,
2013-06-29 19:02:00,68.0,59.0,29.68,NE,48,3.0,7.0,73,0.00,,,0.01,72.000000,,2013-06-30 00:02:00,
2013-06-29 19:12:00,68.0,58.0,29.68,NE,43,5.0,9.0,70,0.00,,,0.01,79.000000,,2013-06-30 00:12:00,
2013-06-29 19:22:00,68.0,57.0,29.68,NNE,24,3.0,9.0,68,0.00,,,0.01,90.000000,,2013-06-30 00:22:00,
2013-06-29 19:33:00,68.0,57.0,29.69,NE,37,3.0,9.0,67,0.00,,,0.01,104.000000,,2013-06-30 00:33:00,
2013-06-29 19:43:00,68.0,57.0,29.69,NE,34,3.0,6.0,67,0.00,,,0.01,123.000000,,2013-06-30 00:43:00,
2013-06-29 19:52:00,68.0,57.0,29.70,NNE,26,5.0,7.0,67,0.00,,,0.01,72.000000,,2013-06-30 00:52:00,
2013-06-29 20:01:00,68.0,57.0,29.70,NNE,18,1.0,6.0,68,0.00,,,0.01,40.000000,,2013-06-30 01:01:00,
2013-06-29 20:11:00,68.0,57.0,29.70,NNE,32,3.0,5.0,67,0.00,,,0.01,44.000000,,2013-06-30 01:11:00,
2013-06-29 20:22:00,68.0,57.0,29.70,NE,36,2.0,5.0,68,0.00,,,0.01,33.000000,,2013-06-30 01:22:00,
2013-06-29 20:33:00,68.0,57.0,29.70,NE,34,2.0,3.0,68,0.00,,,0.01,19.000000,,2013-06-30 01:33:00,
2013-06-29 20:44:00,67.0,56.0,29.70,NNE,32,2.0,5.0,68,0.00,,,0.01,12.000000,,2013-06-30 01:44:00,
2013-06-29 20:53:00,67.0,56.0,29.70,NE,36,2.0,6.0,69,0.00,,,0.01,5.000000,,2013-06-30 01:53:00,
2013-06-29 21:02:00,67.0,57.0,29.70,NNE,25,1.0,5.0,70,0.00,,,0.01,0.000000,,2013-06-30 02:02:00,
2013-06-29 21:11:00,66.0,56.0,29.71,NNE,32,2.0,3.0,70,0.00,,,0.01,0.000000,,2013-06-30 02:11:00,
2013-06-29 21:23:00,66.0,56.0,29.71,NNE,26,3.0,5.0,70,0.00,,,0.01,0.000000,,2013-06-30 02:23:00,
2013-06-29 21:33:00,66.0,57.0,29.72,NNE,16,1.0,3.0,72,0.00,,,0.01,0.000000,,2013-06-30 02:33:00,
2013-06-29 21:43:00,65.0,56.0,29.72,NNE,21,1.0,3.0,72,0.00,,,0.01,0.000000,,2013-06-30 02:43:00,
2013-06-29 21:53:00,65.0,56.0,29.72,NNE,23,2.0,3.0,74,0.00,,,0.01,0.000000,,2013-06-30 02:53:00,
2013-06-29 22:01:00,65.0,56.0,29.73,NNE,18,1.0,3.0,74,0.00,,,0.01,0.000000,,2013-06-30 03:01:00,
2013-06-29 22:12:00,65.0,57.0,29.73,NNE,21,2.0,3.0,75,0.00,,,0.01,0.000000,,2013-06-30 03:12:00,
2013-06-29 22:23:00,65.0,57.0,29.73,NNE,23,1.0,3.0,75,0.00,,,0.01,0.000000,,2013-06-30 03:23:00,
2013-06-29 22:33:00,65.0,57.0,29.73,NNE,22,1.0,3.0,76,0.00,,,0.01,0.000000,,2013-06-30 03:33:00,
2013-06-29 22:43:00,65.0,57.0,29.73,NNE,24,2.0,3.0,75,0.00,,,0.01,0.000000,,2013-06-30 03:43:00,
2013-06-29 22:53:00,65.0,57.0,29.72,NNE,17,2.0,6.0,75,0.00,,,0.01,0.000000,,2013-06-30 03:53:00,
2013-06-29 23:01:00,65.0,57.0,29.73,NNE,14,3.0,5.0,76,0.00,,,0.01,0.000000,,2013-06-30 04:01:00,
2013-06-29 23:12:00,65.0,57.0,29.73,North,11,3.0,6.0,76,0.00,,,0.01,0.000000,,2013-06-30 04:12:00,
2013-06-29 23:22:00,64.0,56.0,29.72,NNE,19,3.0,7.0,76,0.00,,,0.01,0.000000,,2013-06-30 04:22:00,
2013-06-29 23:33:00,64.0,57.0,29.73,North,0,2.0,3.0,77,0.00,,,0.01,0.000000,,2013-06-30 04:33:00,
2013-06-29 23:43:00,64.0,57.0,29.73,NNE,25,3.0,6.0,78,0.00,,,0.01,0.000000,,2013-06-30 04:43:00,
2013-06-29 23:53:00,64.0,57.0,29.73,NNE,15,2.0,10.0,78,0.00,,,0.01,0.000000,,2013-06-30 04:53:00,